Regional Weather Roundup
Issued by NWS

Home | Current Version | Previous Version | Text Only | Print | Product List | Glossary On
Versions: 1 2 3 4 5 6 7 8 9 10 11 12 13 14 15 16 17 18 19 20 21 22 23 24 25 26 27 28 29 30 31 32 33 34 35 36 37 38 39 40 41 42 43 44 45 46 47 48 49 50
000
ASUS43 KDTX 300801
RWRMI
MICHIGAN HOURLY REGIONAL WEATHER ROUNDUP
NATIONAL WEATHER SERVICE DETROIT/PONTIAC MI
400 AM EDT SAT MAY 30 2015

NOTE: "FAIR" INDICATES FEW OR NO CLOUDS BELOW 12,000 FEET WITH NO
SIGNIFICANT WEATHER AND/OR OBSTRUCTION TO VISIBILITY.

MIZ047>049-052>055-059>063-066>070-074>076-081>083-300900-
SOUTHEAST LOWER MICHIGAN

CITY           SKY/WX    TMP DP  RH WIND       PRES   REMARKS
ADRIAN         CLEAR     70  63  78 SW10      29.98S
ALMA           CLOUDY    68  67  95 SW3       29.91S
ANN ARBOR      PTCLDY    68  63  84 S5        29.96S
BAD AXE        MOCLDY    68  65  91 SW8G16    29.90F
CARO           MOCLDY    67  66  96 SW6       29.90F
DETROIT CITY   CLEAR     71  64  78 S8        29.96S
DETROIT        CLOUDY    73  64  73 S8        29.96F
FLINT          MOCLDY    73  65  75 SW3       29.93F
GROSSE ILE     CLEAR     66  64  94 S8        29.96S
HILLSDALE      PTCLDY    69  66  89 S6        29.98S
HOWELL         MOCLDY    71  64  79 S6        29.95S

CITY           SKY/WX    TMP DP  RH WIND       PRES   REMARKS
JACKSON        MOCLDY    72  64  76 SW8       29.96S
LAMBERTVILLE   CLEAR     72  63  73 SW6       29.98S
LANSING        MOCLDY    69  66  90 SW9       29.93F
LAPEER         MOCLDY    70  63  79 S6        29.94S
MASON          MOCLDY    70  64  81 CALM      29.94F
MONROE         CLEAR     72  64  78 SW7       29.96S
MT. CLEMENS    CLEAR     71  65  81 SW7       29.93F
PONTIAC        PTCLDY    72  63  73 SW9       29.94F
PORT HOPE        N/A     69  67  93 SW9G18    29.86F
PORT HURON     PTCLDY    68  64  88 S7        29.95S
TRI CITIES     MOCLDY    70  66  87 SW7       29.90F
MIDLAND        FAIR      68  66  93 SW7       29.88F
TROY           CLEAR     73  65  76 S5        29.97S
SAGINAW HB     MOCLDY    68  68 100 SW9       29.89F
$$
MIZ043>046-050>051-056>058-064>065-071>073-077>080-300900-
SOUTHWEST LOWER MICHIGAN

CITY           SKY/WX    TMP DP  RH WIND       PRES   REMARKS
BATTLE CREEK   MOCLDY    69  66  90 SW12      29.95F
BENTON HARBOR  MOCLDY    69  64  84 SW13      29.93F
BIG RAPIDS     CLOUDY    67  63  87 SW6       29.89F
COLDWATER      MOCLDY    71  64  77 SW8       29.97R
FREMONT        RAIN      64  63  96 SW6       29.91R
HOLLAND        MOCLDY    70  64  81 SW14      29.93S
GRAND RAPIDS   MOCLDY    69  66  90 SW10      29.91F
IONIA          FAIR      69  66  89 SW12      29.91F
KALAMAZOO      MOCLDY    70  66  87 SW10      29.95S
LUDINGTON      HVY RAIN  58  56  93 CALM      29.91F
MARSHALL       CLOUDY    72  64  75 SW8       29.95S
MOUNT PLEASANT MOCLDY    67  65  93 SW7       29.89S
MUSKEGON       CLOUDY    60  57  89 W8        29.93R FOG
SOUTH HAVEN    MOCLDY    71  64  78 SW9       29.93S
$$
MIZ016>042-300900-
NORTHERN LOWER MICHIGAN

CITY           SKY/WX    TMP DP  RH WIND       PRES   REMARKS
ALPENA         LGT RAIN  67  65  93 NW8G16    29.84R FOG
BEAVER ISLAND  LGT RAIN  50  49  97 NW6       29.92R
BELLAIRE       RAIN      58  56  95 NW3       29.91R
CADILLAC       RAIN      66  65  96 W8        29.90R
CHARLEVOIX     LGT RAIN  52  52 100 W5        29.94R VSB 1/2
FRANKFORT      LGT RAIN  57  52  84 CALM      29.91F
GAYLORD        CLOUDY    61  61 100 W6        29.89R FOG
GRAYLING       RAIN      66  65  96 W3        29.88S
HARBOR SPRINGS DRZL/FOG  48  48  99 S7        29.90R VSB 1/4
HOUGHTON LAKE  CLOUDY    68  66  93 SW7       29.89S
MANISTEE       CLOUDY    54  50  87 CALM      29.91F
OSCODA         CLOUDY    68  67  96 SW12      29.85S
PELLSTON       LGT RAIN  58  57  97 NW10      29.89R
ROGERS CITY    LGT RAIN  64  63  97 W7        29.85S
TRAVERSE CITY  LGT RAIN  58  56  93 NW8       29.90R FOG
$$
MIZ007>008-015-300900-
EASTERN UPPER MICHIGAN

CITY           SKY/WX    TMP DP  RH WIND       PRES   REMARKS
KINROSS        CLOUDY    52  52 100 NW9       29.86R
MACKINAC ISLAN CLOUDY    56  56 100 NW8       29.87R
NEWBERRY       CLOUDY    50  49  99 NW8       29.91R
S. S. MARIE    LGT RAIN  47  45  93 W12       29.86R
$$
MIZ004>006-011>014-085-300900-
CENTRAL UPPER MICHIGAN

CITY           SKY/WX    TMP DP  RH WIND       PRES   REMARKS
MANISTIQUE     RAIN      49  48  94 NW17      29.92R
ESCANABA       CLOUDY    52  48  87 N9        29.95R
MENOMINEE      CLOUDY    55  52  88 N8        29.94R
SAWYER-GWINN   CLOUDY    48  46  91 N15       29.99R
$$
MIZ001>003-009>011-084-300900-
WESTERN UPPER MICHIGAN

CITY           SKY/WX    TMP DP  RH WIND       PRES   REMARKS
IRON MOUNTAIN  LGT RAIN  52  49  89 N9        29.98R
HOUGHTON       CLOUDY    47  44  90 NW9       30.04R
COPPER HARBOR    N/A     45  40  82 N9        30.03R
IRONWOOD       CLOUDY    46  45  93 NW8       30.06R
$$

ABBREVIATIONS USED IN REMARKS
   TC - TEMPERATURE IN CELSIUS
  WCI - WIND CHILL INDEX
   HX - HEAT INDEX
  VSB - VISIBILITY



USA.gov is the U.S. government's official web portal to all federal, state and local government web resources and services.